[[{"header":{"parameterUnit":"m.s-1","parameterCategory":1,"la1":30.2992,"la2":30.254,"lo1":-89.0895,"lo2":-89.0443,"dy":0.0025,"dx":0.0025,"nx":19,"ny":19,"refTime":"2026-05-04T03:00:00:Z","depth":0,"parameterNumber":2,"parameterNumberName":"U-component_of_WINDS"},"data":[0,0,0,0.6307,0.6308,0.6338,0.6338,0.6385,0.6385,0,0,0,0,0,0,0,0,0,0,0,0.6303,0.6304,0.6307,0.6308,0.6338,0.6338,0.6385,0.6385,0,0,0,0,0,0,0,0,0,0,0,0.6303,0.6304,0.6304,0.6308,0.6338,0.6338,0.6385,0.6359,0,0,0,0,0,0,0,0,0,0,0.6328,0.633,0.6304,0.6304,0.6308,0.6338,0.6338,0.6358,0.6361,0.6375,0,0.6389,0,0.6388,0.6389,0.6389,0,0,0,0.6304,0.6328,0.6331,0.6304,0.6308,0.6338,0.6323,0.6359,0.6363,0.6379,0.6389,0.6391,0.6389,0.6389,0.639,0.6482,0.6483,0,0,0.6303,0.6312,0.6329,0.6333,0.6329,0.6322,0.6324,0.6361,0.6373,0.639,0.6392,0.6389,0.639,0.639,0.6482,0.6483,0,0,0,0.63,0.6311,0.6313,0.6332,0.6336,0.6323,0.6325,0.6372,0.6372,0.6392,0.639,0.639,0.6391,0.6481,0.6482,0.652,0,0,0,0.6299,0.6309,0.6312,0.6318,0.6336,0.6354,0.6335,0.6369,0.6373,0.639,0.639,0.6391,0.6481,0.6482,0.6518,0.6538,0,0,0,0.63,0.6309,0.6315,0.6319,0.6332,0.6354,0.6355,0.637,0.6372,0.6389,0.6391,0.648,0.6481,0.6516,0.6534,0.6564,0,0,0,0.6303,0.635,0.6316,0.6368,0.6332,0.6377,0.6355,0.6389,0.6408,0.639,0.6481,0.6482,0.6515,0.6532,0.6562,0.6591,0.6605,0,0,0.6368,0.6359,0.6388,0.6358,0.6412,0.6372,0.6431,0.644,0.6434,0.6467,0.6469,0.6519,0.6534,0.6564,0.6674,0.6685,0,0,0,0.6412,0.6433,0.6445,0.6463,0.6471,0.6479,0.6478,0.6482,0.6508,0.6453,0.6538,0.6546,0.6563,0.6577,0.6586,0.66,0.6489,0.6489,0.6488,0.6518,0.6505,0.6553,0.6544,0.6562,0.656,0.6573,0.6577,0.6561,0.6581,0.6591,0.666,0.6676,0.6683,0.6697,0.6605,0.6605,0.6606,0.6606,0.6611,0.6639,0.6614,0.6651,0.6638,0.6669,0.6668,0.6655,0.6682,0.6652,0.6666,0.6634,0.6694,0.6707,0.6608,0.6608,0.6608,0.6607,0.6607,0.668,0.6691,0.6693,0.6716,0.6736,0.6725,0.6752,0.6739,0.6727,0.6742,0.675,0.6749,0.6747,0.6746,0.6747,0.6747,0.6747,0.6747,0.6747,0.675,0.6751,0.6774,0.6784,0.6793,0.6804,0.68,0.6809,0.6816,0.6804,0.6804,0.6785,0.6702,0.6682,0.6751,0.675,0.675,0.675,0.6749,0.685,0.6825,0.6861,0.687,0.688,0.69,0.6882,0.6901,0.6906,0.6919,0.6896,0.6837,0.6827,0.682,0.6803,0.6899,0.6899,0.6899,0.6899,0.6908,0.6901,0.6934,0.6949,0.6962,0.6949,0.699,0.6987,0.698,0.6982,0.6966,0.6942,0.6936,0.693,0.692,0.6904,0.7024,0.7024,0.7024,0.6968,0.6961,0.6999,0.6991,0.6997,0.7003,0.7041,0.7059,0.7046,0.7029,0.6984,0.6979,0.694,0.6928,0.6911,0.6897,0.6867,0,0]},{"header":{"parameterUnit":"m.s-1","parameterCategory":1,"la1":30.2992,"la2":30.254,"lo1":-89.0895,"lo2":-89.0443,"dy":0.0025,"dx":0.0025,"nx":19,"ny":19,"refTime":"2026-05-04T03:00:00:Z","depth":0,"parameterNumber":3,"parameterNumberName":"V-component_of_WINDS"},"data":[0,0,0,6.7337,6.7339,6.7428,6.7429,6.7534,6.7535,0,0,0,0,0,0,0,0,0,0,0,6.7309,6.731,6.7337,6.734,6.7428,6.7429,6.7534,6.7535,0,0,0,0,0,0,0,0,0,0,0,6.7309,6.731,6.7311,6.734,6.7428,6.7429,6.7533,6.7469,0,0,0,0,0,0,0,0,0,0,6.7383,6.7356,6.731,6.7311,6.734,6.7428,6.7429,6.7466,6.7473,6.7491,0,6.751,0,6.7524,6.7542,6.7542,0,0,0,6.734,6.735,6.7377,6.7311,6.7341,6.7428,6.7388,6.747,6.7478,6.75,6.7511,6.7515,6.7526,6.7542,6.7543,6.7656,6.7657,0,0,6.7335,6.7323,6.7371,6.7382,6.7371,6.7385,6.7391,6.7474,6.7484,6.7512,6.7518,6.7528,6.7543,6.7544,6.7656,6.7656,0,0,0,6.7321,6.732,6.7344,6.7377,6.7394,6.7388,6.7395,6.7481,6.749,6.7519,6.7529,6.7543,6.7545,6.7655,6.7656,6.7671,0,0,0,6.7318,6.7311,6.7342,6.7335,6.7393,6.7439,6.7399,6.7484,6.7494,6.7529,6.7543,6.7546,6.7655,6.7656,6.767,6.7679,0,0,0,6.7304,6.731,6.7323,6.7335,6.7373,6.7438,6.7452,6.7486,6.75,6.7542,6.7546,6.7654,6.7655,6.7668,6.7677,6.7706,0,0,0,6.7285,6.7333,6.7323,6.738,6.7372,6.7448,6.7452,6.7508,6.7546,6.7544,6.7655,6.7656,6.7668,6.7676,6.7704,6.7727,6.7737,0,0,6.7338,6.7339,6.7373,6.7367,6.7442,6.7436,6.7512,6.7556,6.7569,6.7625,6.7628,6.767,6.7677,6.7705,6.7793,6.7801,0,0,0,6.7386,6.7411,6.7433,6.7471,6.7509,6.7541,6.7575,6.7592,6.7641,6.7597,6.7689,6.7694,6.7711,6.7722,6.7728,6.7743,6.7661,6.7661,6.7661,6.7442,6.746,6.7518,6.7547,6.7583,6.762,6.765,6.7678,6.7682,6.7704,6.772,6.7772,6.7785,6.7789,6.7805,6.7735,6.7735,6.7735,6.7735,6.7521,6.7559,6.7567,6.7627,6.7644,6.7692,6.7729,6.7731,6.7777,6.776,6.7776,6.7755,6.7797,6.7811,6.7736,6.7736,6.7736,6.7736,6.7735,6.7559,6.758,6.7603,6.766,6.7702,6.7728,6.7774,6.7787,6.7799,6.7815,6.7834,6.7833,6.7834,6.7824,6.7824,6.7824,6.7824,6.7824,6.7824,6.7589,6.7614,6.7652,6.7698,6.7725,6.7762,6.78,6.7826,6.7857,6.7863,6.7863,6.7864,6.7799,6.7781,6.7827,6.7827,6.7826,6.7826,6.7826,6.766,6.7647,6.7706,6.7733,6.7789,6.7829,6.7847,6.7899,6.7921,6.7943,6.7942,6.7892,6.7892,6.7887,6.7873,6.7939,6.7939,6.7939,6.7939,6.7691,6.7694,6.7758,6.7801,6.7844,6.7867,6.7931,6.7961,6.799,6.8005,6.7997,6.798,6.7974,6.7977,6.797,6.7957,6.8044,6.8044,6.8044,6.7735,6.7743,6.7796,6.7828,6.7873,6.791,6.797,6.8016,6.8045,6.8048,6.8016,6.8012,6.7984,6.7974,6.7974,6.7963,6.7939,0,0]}]]